This demonstration page uses our WeatherBlox Daily Observations layout. Learn more.

Left ArrowRight Arrow

Hourly Observations for August 2, 2022

Temp ( °F °C ) Dew Point ( °F °C ) Humidity (%) Winds ( mph kmh ) Pressure ( in mb ) Visibility ( mi km ) Precip ( " mm )
12:52 am 00:52 Cloudy 83 28.3 76 24.4 79 79 SSE 7 11 29.83 1010 10 16 0.00 0.00
1:52 am 01:52 Cloudy 83 28.3 76 24.4 79 79 S 8 13 29.82 1010 10 16 0.00 0.00
2:52 am 02:52 Mostly Cloudy 79 26.1 76 24.4 90 90 ESE 3 6 29.81 1009 10 16 0.00 0.00
3:52 am 03:52 Mostly Cloudy 78 25.6 75 23.9 90 90 SSE 6 9 29.79 1009 10 16 0.00 0.00
4:52 am 04:52 Partly Cloudy 78 25.6 74 23.3 87 87 SSE 9 15 29.79 1009 10 16 0.00 0.00
5:52 am 05:52 Mostly Clear 77 25 72 22.2 85 85 SSE 9 15 29.79 1009 10 16 0.00 0.00
6:52 am 06:52 Mostly Sunny 77 25 71 21.7 82 82 S 9 15 29.80 1009 10 16 0.00 0.00
7:52 am 07:52 Mostly Sunny 78 25.6 70 21.1 76 76 SSE 10 17 29.79 1009 10 16 0.00 0.00
8:52 am 08:52 Partly Cloudy 81 27.2 69 20.6 67 67 S 10 17 29.79 1009 10 16 0.00 0.00
9:52 am 09:52 Partly Cloudy 84 28.9 69 20.6 61 61 S 13 20 29.77 1008 10 16 0.00 0.00
10:52 am 10:52 Partly Cloudy 87 30.6 69 20.6 55 55 SSW 13 20 29.76 1008 10 16 0.00 0.00
11:52 am 11:52 Partly Cloudy 91 32.8 70 21.1 50 50 S 13 20 29.75 1008 10 16 0.00 0.00
12:52 pm 12:52 Partly Cloudy 94 34.4 70 21.1 46 46 S 13 20 29.74 1007 10 16 0.00 0.00
1:52 pm 13:52 Partly Cloudy 97 36.1 71 21.7 43 43 S 13 20 29.72 1006 10 16 0.00 0.00
2:52 pm 14:52 Mostly Cloudy 99 37.2 71 21.7 41 41 S 17 28 29.70 1006 10 16 0.00 0.00
3:52 pm 15:52 Partly Cloudy 100 37.8 70 21.1 38 38 S 16 26 29.68 1005 10 16 0.00 0.00
4:52 pm 16:52 Partly Cloudy 100 37.8 70 21.1 38 38 S 20 31 29.67 1005 10 16 0.00 0.00
5:52 pm 17:52 Partly Cloudy 100 37.8 70 21.1 38 38 S 21 33 29.66 1004 10 16 0.00 0.00
6:52 pm 18:52 Mostly Cloudy 96 35.6 75 23.9 51 51 S 20 31 29.65 1004 10 16 0.00 0.00
7:52 pm 19:52 Mostly Cloudy 94 34.4 76 24.4 56 56 S 15 24 29.65 1004 10 16 0.00 0.00
8:52 pm 20:52 Mostly Cloudy 91 32.8 76 24.4 61 61 S 15 24 29.65 1004 10 16 0.00 0.00
9:52 pm 21:52 Mostly Cloudy 89 31.7 75 23.9 63 63 S 20 31 29.65 1004 10 16 0.00 0.00
10:52 pm 22:52 Partly Cloudy 88 31.1 75 23.9 66 66 S 14 22 29.65 1004 10 16 0.00 0.00
11:52 pm 23:52 Mostly Cloudy 86 30 73 22.8 65 65 SSE 14 22 29.64 1004 10 16 0.00 0.00

Powered by AerisWeather